Time,TemperatureF,DewpointF,PressureIn,WindDirection,WindDirectionDegrees,WindSpeedMPH,WindSpeedGustMPH,Humidity,HourlyPrecipIn,Conditions,Clouds,dailyrainin,SolarRadiationWatts/m^2,SoftwareType,DateUTC
2013-02-15 00:00:00,35.2,28.1,30.21,NW,304,2.0,7.0,75,0.00,,---,0.00,0.00,VWS V14.01,2013-02-15 06:00:00,
2013-02-15 00:05:00,35.0,28.2,30.21,NW,323,3.0,14.0,76,0.00,,---,0.00,0.00,VWS V14.01,2013-02-15 06:05:00,
2013-02-15 00:10:00,34.9,28.1,30.21,NNW,327,0.0,4.0,76,0.00,,---,0.00,0.00,VWS V14.01,2013-02-15 06:10:00,
2013-02-15 00:15:00,34.7,28.2,30.21,NNW,329,4.0,7.0,77,0.00,,---,0.00,0.00,VWS V14.01,2013-02-15 06:15:00,
2013-02-15 00:20:00,34.4,28.0,30.21,North,5,2.0,11.0,77,0.00,,---,0.00,0.00,VWS V14.01,2013-02-15 06:20:00,
2013-02-15 00:25:00,34.4,28.3,30.21,NW,316,2.0,6.0,78,0.00,,---,0.00,0.00,VWS V14.01,2013-02-15 06:25:00,
2013-02-15 00:30:00,34.2,28.1,30.22,NW,313,0.0,7.0,78,0.00,,---,0.00,0.00,VWS V14.01,2013-02-15 06:30:00,
2013-02-15 00:35:00,34.0,28.2,30.22,NW,321,2.0,10.0,79,0.00,,---,0.00,0.00,VWS V14.01,2013-02-15 06:35:00,
2013-02-15 00:40:00,33.9,28.1,30.22,NW,313,5.0,9.0,79,0.00,,---,0.00,0.00,VWS V14.01,2013-02-15 06:40:00,
2013-02-15 00:45:00,33.8,28.0,30.22,NW,310,3.0,4.0,79,0.00,,---,0.00,0.00,VWS V14.01,2013-02-15 06:45:00,
2013-02-15 00:50:00,33.7,27.9,30.22,NW,306,7.0,7.0,79,0.00,,---,0.00,0.00,VWS V14.01,2013-02-15 06:50:00,
2013-02-15 00:55:00,33.7,27.9,30.22,NW,311,0.0,5.0,79,0.00,,---,0.00,0.00,VWS V14.01,2013-02-15 06:55:00,
2013-02-15 01:00:00,33.7,27.9,30.22,NW,314,0.0,3.0,79,0.00,,---,0.00,0.00,VWS V14.01,2013-02-15 07:00:00,
2013-02-15 01:05:00,33.8,28.0,30.23,NW,320,0.0,6.0,79,0.00,,---,0.00,0.00,VWS V14.01,2013-02-15 07:05:00,
2013-02-15 01:10:00,33.9,28.1,30.23,NNW,333,0.0,5.0,79,0.00,,---,0.00,0.00,VWS V14.01,2013-02-15 07:10:00,
2013-02-15 01:15:00,34.0,27.9,30.23,NNW,328,0.0,4.0,78,0.00,,---,0.00,0.00,VWS V14.01,2013-02-15 07:15:00,
2013-02-15 01:20:00,34.1,28.3,30.23,NW,315,1.0,2.0,79,0.00,,---,0.00,0.00,VWS V14.01,2013-02-15 07:20:00,
2013-02-15 01:25:00,34.2,28.4,30.23,NNW,340,0.0,6.0,79,0.00,,---,0.00,0.00,VWS V14.01,2013-02-15 07:25:00,
2013-02-15 01:30:00,34.2,28.4,30.23,North,360,0.0,4.0,79,0.00,,---,0.00,0.00,VWS V14.01,2013-02-15 07:30:00,
2013-02-15 01:35:00,34.3,28.5,30.23,NNW,331,1.0,7.0,79,0.00,,---,0.00,0.00,VWS V14.01,2013-02-15 07:35:00,
2013-02-15 01:40:00,34.1,27.7,30.23,NNW,337,0.0,11.0,77,0.00,,---,0.00,0.00,VWS V14.01,2013-02-15 07:40:00,
2013-02-15 01:45:00,33.9,27.1,30.23,NNW,345,7.0,14.0,76,0.00,,---,0.00,0.00,VWS V14.01,2013-02-15 07:45:00,
2013-02-15 01:50:00,33.8,26.7,30.23,North,11,5.0,11.0,75,0.00,,---,0.00,0.00,VWS V14.01,2013-02-15 07:50:00,
2013-02-15 01:55:00,33.5,26.4,30.24,NNW,334,1.0,12.0,75,0.00,,---,0.00,0.00,VWS V14.01,2013-02-15 07:55:00,
2013-02-15 02:00:00,33.3,26.2,30.24,NW,320,3.0,12.0,75,0.00,,---,0.00,0.00,VWS V14.01,2013-02-15 08:00:00,
2013-02-15 02:05:00,33.0,26.0,30.25,NNW,348,5.0,10.0,75,0.00,,---,0.00,0.00,VWS V14.01,2013-02-15 08:05:00,
2013-02-15 02:10:00,32.5,25.8,30.25,NNW,336,0.0,7.0,76,0.00,,---,0.00,0.00,VWS V14.01,2013-02-15 08:10:00,
2013-02-15 02:15:00,32.2,25.5,30.25,North,355,1.0,10.0,76,0.00,,---,0.00,0.00,VWS V14.01,2013-02-15 08:15:00,
2013-02-15 02:20:00,31.9,25.5,30.25,North,350,0.0,10.0,77,0.00,,---,0.00,0.00,VWS V14.01,2013-02-15 08:20:00,
2013-02-15 02:24:00,31.7,25.3,30.25,NW,307,3.0,10.0,77,0.00,,---,0.00,0.00,VWS V14.01,2013-02-15 08:24:00,
2013-02-15 02:29:00,31.5,25.4,30.25,NW,321,6.0,12.0,78,0.00,,---,0.00,0.00,VWS V14.01,2013-02-15 08:29:00,
2013-02-15 02:34:00,31.4,25.4,30.26,NNW,337,3.0,12.0,78,0.00,,---,0.00,0.00,VWS V14.01,2013-02-15 08:34:00,
2013-02-15 02:39:00,31.3,25.2,30.26,NNW,336,1.0,9.0,78,0.00,,---,0.00,0.00,VWS V14.01,2013-02-15 08:39:00,
2013-02-15 02:44:00,31.2,25.1,30.26,NNW,333,3.0,9.0,78,0.00,,---,0.00,0.00,VWS V14.01,2013-02-15 08:44:00,
2013-02-15 02:49:00,31.2,25.1,30.26,WNW,295,7.0,11.0,78,0.00,,---,0.00,0.00,VWS V14.01,2013-02-15 08:49:00,
2013-02-15 02:54:00,31.2,25.1,30.26,NW,319,0.0,4.0,78,0.00,,---,0.00,0.00,VWS V14.01,2013-02-15 08:54:00,
2013-02-15 02:59:00,31.1,24.8,30.27,WNW,303,0.0,7.0,77,0.00,,---,0.00,0.00,VWS V14.01,2013-02-15 08:59:00,
2013-02-15 03:04:00,31.0,24.6,30.27,WNW,299,4.0,14.0,77,0.00,,---,0.00,0.00,VWS V14.01,2013-02-15 09:04:00,
2013-02-15 03:09:00,30.8,24.1,30.27,NW,325,9.0,13.0,76,0.00,,---,0.00,0.00,VWS V14.01,2013-02-15 09:09:00,
2013-02-15 03:14:00,30.4,22.8,30.27,NNW,327,10.0,11.0,73,0.00,,---,0.00,0.00,VWS V14.01,2013-02-15 09:14:00,
2013-02-15 03:19:00,30.1,21.9,30.27,NNW,342,1.0,12.0,71,0.00,,---,0.00,0.00,VWS V14.01,2013-02-15 09:19:00,
2013-02-15 03:24:00,29.8,21.6,30.27,NNW,333,2.0,10.0,71,0.00,,---,0.00,0.00,VWS V14.01,2013-02-15 09:24:00,
2013-02-15 03:29:00,29.5,21.6,30.27,NW,322,3.0,14.0,72,0.00,,---,0.00,0.00,VWS V14.01,2013-02-15 09:29:00,
2013-02-15 03:34:00,29.3,21.7,30.28,NW,323,0.0,11.0,73,0.00,,---,0.00,0.00,VWS V14.01,2013-02-15 09:34:00,
2013-02-15 03:39:00,29.0,21.4,30.28,NNW,343,3.0,15.0,73,0.00,,---,0.00,0.00,VWS V14.01,2013-02-15 09:39:00,
2013-02-15 03:44:00,28.9,21.7,30.28,NNW,337,6.0,12.0,74,0.00,,---,0.00,0.00,VWS V14.01,2013-02-15 09:44:00,
2013-02-15 03:49:00,28.8,21.2,30.28,NNW,342,3.0,15.0,73,0.00,,---,0.00,0.00,VWS V14.01,2013-02-15 09:49:00,
2013-02-15 03:54:00,28.7,21.1,30.28,NNE,32,0.0,17.0,73,0.00,,---,0.00,0.00,VWS V14.01,2013-02-15 09:54:00,
2013-02-15 03:59:00,28.7,21.1,30.28,NNE,33,3.0,10.0,73,0.00,,---,0.00,0.00,VWS V14.01,2013-02-15 09:59:00,
2013-02-15 04:04:00,28.5,21.0,30.28,NNW,345,6.0,10.0,73,0.00,,---,0.00,0.00,VWS V14.01,2013-02-15 10:04:00,
2013-02-15 04:09:00,28.4,20.9,30.29,NW,326,1.0,13.0,73,0.00,,---,0.00,0.00,VWS V14.01,2013-02-15 10:09:00,
2013-02-15 04:14:00,28.2,21.0,30.29,WNW,303,4.0,7.0,74,0.00,,---,0.00,0.00,VWS V14.01,2013-02-15 10:14:00,
2013-02-15 04:19:00,28.1,20.9,30.30,NNW,329,5.0,7.0,74,0.00,,---,0.00,0.00,VWS V14.01,2013-02-15 10:19:00,
2013-02-15 04:24:00,27.9,21.0,30.30,NNW,336,1.0,9.0,75,0.00,,---,0.00,0.00,VWS V14.01,2013-02-15 10:24:00,
2013-02-15 04:29:00,27.8,20.9,30.30,North,355,11.0,11.0,75,0.00,,---,0.00,0.00,VWS V14.01,2013-02-15 10:29:00,
2013-02-15 04:34:00,27.6,20.1,30.30,NW,310,2.0,10.0,73,0.00,,---,0.00,0.00,VWS V14.01,2013-02-15 10:34:00,
2013-02-15 04:39:00,27.4,19.6,30.31,NNW,345,6.0,14.0,72,0.00,,---,0.00,0.00,VWS V14.01,2013-02-15 10:39:00,
2013-02-15 04:44:00,27.3,19.5,30.31,NNW,337,3.0,9.0,72,0.00,,---,0.00,0.00,VWS V14.01,2013-02-15 10:44:00,
2013-02-15 04:49:00,27.2,18.7,30.31,NNW,344,8.0,9.0,70,0.00,,---,0.00,0.00,VWS V14.01,2013-02-15 10:49:00,
2013-02-15 04:54:00,27.0,18.2,30.31,NNW,334,0.0,9.0,69,0.00,,---,0.00,0.00,VWS V14.01,2013-02-15 10:54:00,
2013-02-15 04:59:00,26.9,18.1,30.32,NW,305,4.0,7.0,69,0.00,,---,0.00,0.00,VWS V14.01,2013-02-15 10:59:00,
2013-02-15 05:04:00,26.8,17.7,30.32,NNE,15,4.0,13.0,68,0.00,,---,0.00,0.00,VWS V14.01,2013-02-15 11:04:00,
2013-02-15 05:09:00,26.7,17.6,30.32,NW,326,3.0,11.0,68,0.00,,---,0.00,0.00,VWS V14.01,2013-02-15 11:09:00,
2013-02-15 05:14:00,26.7,17.6,30.33,WNW,302,0.0,10.0,68,0.00,,---,0.00,0.00,VWS V14.01,2013-02-15 11:14:00,
2013-02-15 05:19:00,26.6,16.8,30.33,NW,309,9.0,15.0,66,0.00,,---,0.00,0.00,VWS V14.01,2013-02-15 11:19:00,
2013-02-15 05:24:00,26.5,16.3,30.33,NW,317,2.0,7.0,65,0.00,,---,0.00,0.00,VWS V14.01,2013-02-15 11:24:00,
2013-02-15 05:29:00,26.4,16.6,30.33,NW,319,3.0,10.0,66,0.00,,---,0.00,0.00,VWS V14.01,2013-02-15 11:29:00,
2013-02-15 05:34:00,26.3,16.5,30.33,WNW,302,3.0,9.0,66,0.00,,---,0.00,0.00,VWS V14.01,2013-02-15 11:34:00,
2013-02-15 05:39:00,26.2,16.8,30.34,NNW,328,1.0,7.0,67,0.00,,---,0.00,0.00,VWS V14.01,2013-02-15 11:39:00,
2013-02-15 05:44:00,26.2,16.8,30.34,NW,315,0.0,12.0,67,0.00,,---,0.00,0.00,VWS V14.01,2013-02-15 11:44:00,
2013-02-15 05:49:00,26.1,16.7,30.34,NNW,329,0.0,9.0,67,0.00,,---,0.00,0.00,VWS V14.01,2013-02-15 11:49:00,
2013-02-15 05:54:00,26.0,16.2,30.35,WNW,298,1.0,12.0,66,0.00,,---,0.00,0.00,VWS V14.01,2013-02-15 11:54:00,
2013-02-15 05:59:00,25.9,15.8,30.35,NNW,347,3.0,7.0,65,0.00,,---,0.00,0.00,VWS V14.01,2013-02-15 11:59:00,
2013-02-15 06:04:00,25.8,15.7,30.35,WNW,300,3.0,8.0,65,0.00,,---,0.00,0.00,VWS V14.01,2013-02-15 12:04:00,
2013-02-15 06:09:00,25.7,15.6,30.35,NNW,337,4.0,10.0,65,0.00,,---,0.00,0.00,VWS V14.01,2013-02-15 12:09:00,
2013-02-15 06:14:00,25.6,15.8,30.35,NNW,333,0.0,9.0,66,0.00,,---,0.00,0.00,VWS V14.01,2013-02-15 12:14:00,
2013-02-15 06:19:00,25.5,16.1,30.36,NNW,330,0.0,3.0,67,0.00,,---,0.00,0.00,VWS V14.01,2013-02-15 12:19:00,
2013-02-15 06:24:00,25.4,16.0,30.36,NW,317,4.0,11.0,67,0.00,,---,0.00,0.00,VWS V14.01,2013-02-15 12:24:00,
2013-02-15 06:29:00,25.3,15.9,30.36,NW,304,2.0,4.0,67,0.00,,---,0.00,0.00,VWS V14.01,2013-02-15 12:29:00,
2013-02-15 06:34:00,25.2,15.8,30.36,NNW,338,1.0,11.0,67,0.00,,---,0.00,0.00,VWS V14.01,2013-02-15 12:34:00,
2013-02-15 06:39:00,25.1,16.0,30.36,NW,319,3.0,12.0,68,0.00,,---,0.00,0.00,VWS V14.01,2013-02-15 12:39:00,
2013-02-15 06:44:00,25.1,15.7,30.37,NW,321,0.0,2.0,67,0.00,,---,0.00,0.00,VWS V14.01,2013-02-15 12:44:00,
2013-02-15 06:49:00,25.0,15.6,30.37,WNW,285,0.0,6.0,67,0.00,,---,0.00,0.00,VWS V14.01,2013-02-15 12:49:00,
2013-02-15 06:54:00,24.9,15.9,30.37,NW,325,0.0,7.0,68,0.00,,---,0.00,0.00,VWS V14.01,2013-02-15 12:54:00,
2013-02-15 06:59:00,24.8,15.4,30.37,NNW,330,0.0,7.0,67,0.00,,---,0.00,5.00,VWS V14.01,2013-02-15 12:59:00,
2013-02-15 07:04:00,24.8,15.8,30.37,NW,304,0.0,4.0,68,0.00,,---,0.00,7.00,VWS V14.01,2013-02-15 13:04:00,
2013-02-15 07:09:00,24.7,15.7,30.37,NW,313,0.0,4.0,68,0.00,,---,0.00,11.00,VWS V14.01,2013-02-15 13:09:00,
2013-02-15 07:14:00,24.7,16.0,30.38,NNW,344,3.0,4.0,69,0.00,,---,0.00,14.00,VWS V14.01,2013-02-15 13:14:00,
2013-02-15 07:19:00,24.6,15.9,30.38,North,360,4.0,10.0,69,0.00,,---,0.00,16.00,VWS V14.01,2013-02-15 13:19:00,
2013-02-15 07:24:00,24.6,16.2,30.38,NNW,342,1.0,12.0,70,0.00,,---,0.00,39.00,VWS V14.01,2013-02-15 13:24:00,
2013-02-15 07:29:00,24.7,16.3,30.38,NW,318,3.0,10.0,70,0.00,,---,0.00,63.00,VWS V14.01,2013-02-15 13:29:00,
2013-02-15 07:34:00,24.8,16.4,30.39,NW,313,0.0,5.0,70,0.00,,---,0.00,79.00,VWS V14.01,2013-02-15 13:34:00,
2013-02-15 07:39:00,24.9,16.2,30.39,NW,310,2.0,12.0,69,0.00,,---,0.00,97.00,VWS V14.01,2013-02-15 13:39:00,
2013-02-15 07:44:00,25.1,16.4,30.39,NNW,327,7.0,12.0,69,0.00,,---,0.00,114.00,VWS V14.01,2013-02-15 13:44:00,
2013-02-15 07:49:00,25.3,16.6,30.39,NNW,329,6.0,12.0,69,0.00,,---,0.00,128.00,VWS V14.01,2013-02-15 13:49:00,
2013-02-15 07:54:00,25.5,16.8,30.40,NNW,348,4.0,13.0,69,0.00,,---,0.00,148.00,VWS V14.01,2013-02-15 13:54:00,
2013-02-15 07:59:00,25.7,17.0,30.40,NNW,335,7.0,9.0,69,0.00,,---,0.00,162.00,VWS V14.01,2013-02-15 13:59:00,
2013-02-15 08:04:00,25.8,16.7,30.40,NNW,338,5.0,10.0,68,0.00,,---,0.00,176.00,VWS V14.01,2013-02-15 14:04:00,
2013-02-15 08:09:00,26.0,16.9,30.41,WNW,300,3.0,9.0,68,0.00,,---,0.00,192.00,VWS V14.01,2013-02-15 14:09:00,
2013-02-15 08:14:00,26.1,16.3,30.41,NW,318,0.0,8.0,66,0.00,,---,0.00,207.00,VWS V14.01,2013-02-15 14:14:00,
2013-02-15 08:19:00,26.3,16.9,30.41,WNW,303,3.0,10.0,67,0.00,,---,0.00,218.00,VWS V14.01,2013-02-15 14:19:00,
2013-02-15 08:24:00,26.6,17.1,30.41,NW,316,1.0,8.0,67,0.00,,---,0.00,234.00,VWS V14.01,2013-02-15 14:24:00,
2013-02-15 08:29:00,26.8,17.0,30.41,NW,306,3.0,8.0,66,0.00,,---,0.00,251.00,VWS V14.01,2013-02-15 14:29:00,
2013-02-15 08:34:00,27.1,17.6,30.41,NW,315,5.0,7.0,67,0.00,,---,0.00,267.00,VWS V14.01,2013-02-15 14:34:00,
2013-02-15 08:39:00,27.2,17.4,30.42,NNE,28,0.0,10.0,66,0.00,,---,0.00,281.00,VWS V14.01,2013-02-15 14:39:00,
2013-02-15 08:44:00,27.5,17.3,30.41,NW,320,2.0,6.0,65,0.00,,---,0.00,299.00,VWS V14.01,2013-02-15 14:44:00,
2013-02-15 08:49:00,27.6,17.4,30.42,NW,317,0.0,7.0,65,0.00,,---,0.00,309.00,VWS V14.01,2013-02-15 14:49:00,
2013-02-15 08:53:00,27.7,17.1,30.42,NW,313,4.0,7.0,64,0.00,,---,0.00,322.00,VWS V14.01,2013-02-15 14:53:00,
2013-02-15 08:58:00,27.6,17.0,30.42,NNW,329,6.0,11.0,64,0.00,,---,0.00,163.00,VWS V14.01,2013-02-15 14:58:00,
2013-02-15 09:03:00,27.6,17.0,30.42,NW,321,2.0,7.0,64,0.00,,---,0.00,253.00,VWS V14.01,2013-02-15 15:03:00,
2013-02-15 09:08:00,27.8,16.9,30.42,NW,316,4.0,6.0,63,0.00,,---,0.00,276.00,VWS V14.01,2013-02-15 15:08:00,
2013-02-15 09:13:00,27.9,17.0,30.42,NW,319,0.0,5.0,63,0.00,,---,0.00,260.00,VWS V14.01,2013-02-15 15:13:00,
2013-02-15 09:18:00,28.0,17.0,30.42,WNW,302,4.0,8.0,63,0.00,,---,0.00,253.00,VWS V14.01,2013-02-15 15:18:00,
2013-02-15 09:23:00,27.9,17.0,30.42,NW,319,1.0,7.0,63,0.00,,---,0.00,225.00,VWS V14.01,2013-02-15 15:23:00,
2013-02-15 09:28:00,27.9,16.6,30.42,NW,323,4.0,10.0,62,0.00,,---,0.00,250.00,VWS V14.01,2013-02-15 15:28:00,
2013-02-15 09:33:00,27.9,16.2,30.42,NNW,346,4.0,11.0,61,0.00,,---,0.00,253.00,VWS V14.01,2013-02-15 15:33:00,
2013-02-15 09:38:00,28.1,16.4,30.42,NNE,14,4.0,7.0,61,0.00,,---,0.00,443.00,VWS V14.01,2013-02-15 15:38:00,
2013-02-15 09:43:00,28.4,16.7,30.42,NW,314,5.0,9.0,61,0.00,,---,0.00,320.00,VWS V14.01,2013-02-15 15:43:00,
2013-02-15 09:48:00,28.8,16.7,30.42,NNE,26,0.0,6.0,60,0.00,,---,0.00,388.00,VWS V14.01,2013-02-15 15:48:00,
2013-02-15 09:53:00,29.1,16.6,30.42,NNE,15,0.0,7.0,59,0.00,,---,0.00,468.00,VWS V14.01,2013-02-15 15:53:00,
2013-02-15 09:58:00,29.4,16.9,30.42,NW,306,0.0,4.0,59,0.00,,---,0.00,315.00,VWS V14.01,2013-02-15 15:58:00,
2013-02-15 10:03:00,29.8,17.2,30.42,NNW,329,0.0,5.0,59,0.00,,---,0.00,522.00,VWS V14.01,2013-02-15 16:03:00,
2013-02-15 10:08:00,30.1,17.1,30.42,WNW,303,1.0,4.0,58,0.00,,---,0.00,531.00,VWS V14.01,2013-02-15 16:08:00,
2013-02-15 10:13:00,30.7,16.9,30.42,WNW,294,0.0,7.0,56,0.00,,---,0.00,543.00,VWS V14.01,2013-02-15 16:13:00,
2013-02-15 10:18:00,31.0,16.7,30.42,WNW,301,3.0,7.0,55,0.00,,---,0.00,552.00,VWS V14.01,2013-02-15 16:18:00,
2013-02-15 10:23:00,31.1,16.4,30.42,WNW,303,3.0,4.0,54,0.00,,---,0.00,559.00,VWS V14.01,2013-02-15 16:23:00,
2013-02-15 10:28:00,31.0,15.9,30.42,North,360,7.0,10.0,53,0.00,,---,0.00,570.00,VWS V14.01,2013-02-15 16:28:00,
2013-02-15 10:33:00,30.8,15.3,30.42,WNW,300,2.0,5.0,52,0.00,,---,0.00,577.00,VWS V14.01,2013-02-15 16:33:00,
2013-02-15 10:38:00,31.3,16.2,30.42,NW,323,4.0,7.0,53,0.00,,---,0.00,587.00,VWS V14.01,2013-02-15 16:38:00,
2013-02-15 10:43:00,31.7,16.5,30.42,NNW,340,0.0,4.0,53,0.00,,---,0.00,594.00,VWS V14.01,2013-02-15 16:43:00,
2013-02-15 10:48:00,31.9,16.3,30.42,NNW,329,0.0,6.0,52,0.00,,---,0.00,605.00,VWS V14.01,2013-02-15 16:48:00,
2013-02-15 10:53:00,31.9,16.3,30.42,NW,311,0.0,5.0,52,0.00,,---,0.00,612.00,VWS V14.01,2013-02-15 16:53:00,
2013-02-15 10:58:00,32.0,15.5,30.42,WNW,287,4.0,6.0,50,0.00,,---,0.00,622.00,VWS V14.01,2013-02-15 16:58:00,
2013-02-15 11:03:00,32.3,15.3,30.42,WNW,295,0.0,6.0,49,0.00,,---,0.00,628.00,VWS V14.01,2013-02-15 17:03:00,
2013-02-15 11:08:00,32.4,15.4,30.42,North,9,5.0,5.0,49,0.00,,---,0.00,635.00,VWS V14.01,2013-02-15 17:08:00,
2013-02-15 11:13:00,32.8,15.8,30.42,North,5,0.0,4.0,49,0.00,,---,0.00,640.00,VWS V14.01,2013-02-15 17:13:00,
2013-02-15 11:18:00,33.0,15.0,30.42,NNW,331,2.0,6.0,47,0.00,,---,0.00,649.00,VWS V14.01,2013-02-15 17:18:00,
2013-02-15 11:23:00,33.1,15.6,30.42,West,281,4.0,4.0,48,0.00,,---,0.00,652.00,VWS V14.01,2013-02-15 17:23:00,
2013-02-15 11:28:00,33.3,16.7,30.41,WNW,290,0.0,4.0,50,0.00,,---,0.00,659.00,VWS V14.01,2013-02-15 17:28:00,
2013-02-15 11:33:00,33.4,16.8,30.41,West,266,4.0,8.0,50,0.00,,---,0.00,663.00,VWS V14.01,2013-02-15 17:33:00,
2013-02-15 11:38:00,33.4,17.2,30.41,WNW,288,1.0,6.0,51,0.00,,---,0.00,670.00,VWS V14.01,2013-02-15 17:38:00,
2013-02-15 11:43:00,33.7,17.5,30.41,NW,308,2.0,7.0,51,0.00,,---,0.00,675.00,VWS V14.01,2013-02-15 17:43:00,
2013-02-15 11:48:00,33.7,18.0,30.40,West,277,0.0,5.0,52,0.00,,---,0.00,679.00,VWS V14.01,2013-02-15 17:48:00,
2013-02-15 11:53:00,34.4,17.7,30.40,NE,41,0.0,5.0,50,0.00,,---,0.00,679.00,VWS V14.01,2013-02-15 17:53:00,
2013-02-15 11:58:00,34.4,17.7,30.40,NNW,334,0.0,3.0,50,0.00,,---,0.00,687.00,VWS V14.01,2013-02-15 17:58:00,
2013-02-15 12:03:00,34.7,17.5,30.40,NW,313,0.0,5.0,49,0.00,,---,0.00,689.00,VWS V14.01,2013-02-15 18:03:00,
2013-02-15 12:08:00,34.3,16.7,30.40,WSW,251,6.0,10.0,48,0.00,,---,0.00,691.00,VWS V14.01,2013-02-15 18:08:00,
2013-02-15 12:13:00,34.2,17.0,30.40,WSW,254,0.0,5.0,49,0.00,,---,0.00,694.00,VWS V14.01,2013-02-15 18:13:00,
2013-02-15 12:18:00,34.5,17.8,30.39,WNW,291,0.0,10.0,50,0.00,,---,0.00,694.00,VWS V14.01,2013-02-15 18:18:00,
2013-02-15 12:23:00,35.0,17.8,30.39,WNW,286,3.0,11.0,49,0.00,,---,0.00,693.00,VWS V14.01,2013-02-15 18:23:00,
2013-02-15 12:28:00,35.2,18.4,30.39,NW,306,4.0,6.0,50,0.00,,---,0.00,696.00,VWS V14.01,2013-02-15 18:28:00,
2013-02-15 12:33:00,35.4,17.7,30.39,WNW,286,3.0,7.0,48,0.00,,---,0.00,698.00,VWS V14.01,2013-02-15 18:33:00,
2013-02-15 12:38:00,35.5,17.8,30.39,NW,310,0.0,6.0,48,0.00,,---,0.00,696.00,VWS V14.01,2013-02-15 18:38:00,
2013-02-15 12:43:00,36.0,17.7,30.38,WNW,298,0.0,6.0,47,0.00,,---,0.00,691.00,VWS V14.01,2013-02-15 18:43:00,
2013-02-15 12:48:00,36.3,17.5,30.38,WNW,298,2.0,9.0,46,0.00,,---,0.00,698.00,VWS V14.01,2013-02-15 18:48:00,
2013-02-15 12:53:00,36.2,17.4,30.38,West,279,4.0,7.0,46,0.00,,---,0.00,696.00,VWS V14.01,2013-02-15 18:53:00,
2013-02-15 12:58:00,36.2,16.9,30.38,West,274,3.0,7.0,45,0.00,,---,0.00,694.00,VWS V14.01,2013-02-15 18:58:00,
2013-02-15 13:03:00,36.4,17.1,30.38,West,273,5.0,6.0,45,0.00,,---,0.00,693.00,VWS V14.01,2013-02-15 19:03:00,
2013-02-15 13:08:00,36.5,18.2,30.38,NNW,327,1.0,3.0,47,0.00,,---,0.00,689.00,VWS V14.01,2013-02-15 19:08:00,
2013-02-15 13:13:00,36.7,16.9,30.37,NNW,341,0.0,10.0,44,0.00,,---,0.00,687.00,VWS V14.01,2013-02-15 19:13:00,
2013-02-15 13:18:00,36.8,16.4,30.37,WNW,295,6.0,12.0,43,0.00,,---,0.00,686.00,VWS V14.01,2013-02-15 19:18:00,
2013-02-15 13:23:00,37.0,16.6,30.38,WNW,296,4.0,6.0,43,0.00,,---,0.00,673.00,VWS V14.01,2013-02-15 19:23:00,
2013-02-15 13:28:00,37.6,16.6,30.37,WNW,303,4.0,9.0,42,0.00,,---,0.00,671.00,VWS V14.01,2013-02-15 19:28:00,
2013-02-15 13:33:00,37.3,16.3,30.37,WNW,291,3.0,8.0,42,0.00,,---,0.00,661.00,VWS V14.01,2013-02-15 19:33:00,
2013-02-15 13:38:00,37.3,16.9,30.37,West,272,6.0,9.0,43,0.00,,---,0.00,659.00,VWS V14.01,2013-02-15 19:38:00,
2013-02-15 13:43:00,37.3,16.9,30.37,WNW,291,2.0,6.0,43,0.00,,---,0.00,647.00,VWS V14.01,2013-02-15 19:43:00,
2013-02-15 13:48:00,37.1,16.1,30.36,NW,316,1.0,6.0,42,0.00,,---,0.00,643.00,VWS V14.01,2013-02-15 19:48:00,
2013-02-15 13:53:00,37.5,16.5,30.36,NW,317,4.0,10.0,42,0.00,,---,0.00,633.00,VWS V14.01,2013-02-15 19:53:00,
2013-02-15 13:58:00,37.6,16.6,30.36,WNW,300,3.0,7.0,42,0.00,,---,0.00,624.00,VWS V14.01,2013-02-15 19:58:00,
2013-02-15 14:03:00,37.9,16.9,30.36,NNW,336,2.0,8.0,42,0.00,,---,0.00,617.00,VWS V14.01,2013-02-15 20:03:00,
2013-02-15 14:08:00,37.8,16.8,30.36,WNW,300,5.0,6.0,42,0.00,,---,0.00,608.00,VWS V14.01,2013-02-15 20:08:00,
2013-02-15 14:13:00,37.9,16.3,30.36,West,260,4.0,6.0,41,0.00,,---,0.00,599.00,VWS V14.01,2013-02-15 20:13:00,
2013-02-15 14:18:00,37.9,16.3,30.36,WNW,294,2.0,5.0,41,0.00,,---,0.00,591.00,VWS V14.01,2013-02-15 20:18:00,
2013-02-15 14:23:00,38.0,17.0,30.35,West,269,4.0,10.0,42,0.00,,---,0.00,582.00,VWS V14.01,2013-02-15 20:23:00,
2013-02-15 14:28:00,38.0,16.4,30.35,WSW,250,3.0,8.0,41,0.00,,---,0.00,575.00,VWS V14.01,2013-02-15 20:28:00,
2013-02-15 14:33:00,38.0,17.0,30.35,WNW,292,0.0,7.0,42,0.00,,---,0.00,564.00,VWS V14.01,2013-02-15 20:33:00,
2013-02-15 14:38:00,38.3,17.2,30.35,NNW,334,0.0,3.0,42,0.00,,---,0.00,554.00,VWS V14.01,2013-02-15 20:38:00,
2013-02-15 14:43:00,38.6,17.0,30.35,NW,307,5.0,5.0,41,0.00,,---,0.00,545.00,VWS V14.01,2013-02-15 20:43:00,
2013-02-15 14:48:00,38.8,17.1,30.35,WNW,292,3.0,5.0,41,0.00,,---,0.00,554.00,VWS V14.01,2013-02-15 20:48:00,
2013-02-15 14:53:00,38.7,16.5,30.35,West,278,3.0,5.0,40,0.00,,---,0.00,538.00,VWS V14.01,2013-02-15 20:53:00,
2013-02-15 14:58:00,38.4,16.8,30.35,WNW,292,2.0,5.0,41,0.00,,---,0.00,538.00,VWS V14.01,2013-02-15 20:58:00,
2013-02-15 15:03:00,38.8,16.6,30.35,WNW,297,0.0,10.0,40,0.00,,---,0.00,541.00,VWS V14.01,2013-02-15 21:03:00,
2013-02-15 15:08:00,38.8,16.6,30.35,WNW,294,1.0,8.0,40,0.00,,---,0.00,517.00,VWS V14.01,2013-02-15 21:08:00,
2013-02-15 15:13:00,38.7,17.0,30.35,NW,316,0.0,9.0,41,0.00,,---,0.00,496.00,VWS V14.01,2013-02-15 21:13:00,
2013-02-15 15:18:00,38.6,16.4,30.35,NW,306,7.0,7.0,40,0.00,,---,0.00,468.00,VWS V14.01,2013-02-15 21:18:00,
2013-02-15 15:23:00,38.6,17.5,30.35,WNW,300,5.0,6.0,42,0.00,,---,0.00,450.00,VWS V14.01,2013-02-15 21:23:00,
2013-02-15 15:28:00,38.6,16.4,30.35,NW,321,1.0,5.0,40,0.00,,---,0.00,432.00,VWS V14.01,2013-02-15 21:28:00,
2013-02-15 15:33:00,38.3,16.1,30.36,WNW,282,3.0,10.0,40,0.00,,---,0.00,425.00,VWS V14.01,2013-02-15 21:33:00,
2013-02-15 15:38:00,38.1,16.5,30.36,WSW,249,15.0,15.0,41,0.00,,---,0.00,422.00,VWS V14.01,2013-02-15 21:38:00,
2013-02-15 15:43:00,38.2,16.6,30.36,WNW,294,5.0,6.0,41,0.00,,---,0.00,425.00,VWS V14.01,2013-02-15 21:43:00,
2013-02-15 15:48:00,38.3,16.7,30.36,West,267,4.0,11.0,41,0.00,,---,0.00,411.00,VWS V14.01,2013-02-15 21:48:00,
2013-02-15 15:53:00,38.3,16.7,30.36,WSW,241,11.0,14.0,41,0.00,,---,0.00,345.00,VWS V14.01,2013-02-15 21:53:00,
2013-02-15 15:57:00,37.7,15.6,30.36,WSW,253,5.0,11.0,40,0.00,,---,0.00,70.00,VWS V14.01,2013-02-15 21:57:00,
2013-02-15 16:02:00,37.1,15.0,30.37,West,275,5.0,10.0,40,0.00,,---,0.00,67.00,VWS V14.01,2013-02-15 22:02:00,
2013-02-15 16:07:00,36.6,15.1,30.37,West,267,4.0,7.0,41,0.00,,---,0.00,287.00,VWS V14.01,2013-02-15 22:07:00,
2013-02-15 16:12:00,36.4,14.4,30.37,WNW,286,6.0,8.0,40,0.00,,---,0.00,51.00,VWS V14.01,2013-02-15 22:12:00,
2013-02-15 16:17:00,36.0,14.6,30.37,West,275,3.0,5.0,41,0.00,,---,0.00,121.00,VWS V14.01,2013-02-15 22:17:00,
2013-02-15 16:22:00,35.8,14.4,30.37,West,267,6.0,11.0,41,0.00,,---,0.00,69.00,VWS V14.01,2013-02-15 22:22:00,
2013-02-15 16:27:00,35.6,14.8,30.37,WNW,292,4.0,7.0,42,0.00,,---,0.00,169.00,VWS V14.01,2013-02-15 22:27:00,
2013-02-15 16:32:00,35.5,15.2,30.37,West,271,0.0,9.0,43,0.00,,---,0.00,171.00,VWS V14.01,2013-02-15 22:32:00,
2013-02-15 16:37:00,35.6,14.8,30.37,West,267,0.0,3.0,42,0.00,,---,0.00,223.00,VWS V14.01,2013-02-15 22:37:00,
2013-02-15 16:42:00,35.7,14.9,30.37,West,280,6.0,10.0,42,0.00,,---,0.00,195.00,VWS V14.01,2013-02-15 22:42:00,
2013-02-15 16:47:00,35.8,15.0,30.37,WNW,303,0.0,6.0,42,0.00,,---,0.00,178.00,VWS V14.01,2013-02-15 22:47:00,
2013-02-15 16:52:00,35.9,14.5,30.37,WNW,300,9.0,9.0,41,0.00,,---,0.00,153.00,VWS V14.01,2013-02-15 22:52:00,
2013-02-15 16:57:00,35.9,13.9,30.37,WNW,295,1.0,7.0,40,0.00,,---,0.00,114.00,VWS V14.01,2013-02-15 22:57:00,
2013-02-15 17:02:00,35.8,13.9,30.37,NNW,336,0.0,6.0,40,0.00,,---,0.00,76.00,VWS V14.01,2013-02-15 23:02:00,
2013-02-15 17:07:00,35.5,14.1,30.37,WNW,292,2.0,5.0,41,0.00,,---,0.00,81.00,VWS V14.01,2013-02-15 23:07:00,
2013-02-15 17:12:00,35.3,13.4,30.37,WNW,297,3.0,7.0,40,0.00,,---,0.00,83.00,VWS V14.01,2013-02-15 23:12:00,
2013-02-15 17:17:00,35.1,13.2,30.37,NW,317,5.0,6.0,40,0.00,,---,0.00,49.00,VWS V14.01,2013-02-15 23:17:00,
2013-02-15 17:22:00,34.8,12.9,30.37,NW,312,0.0,3.0,40,0.00,,---,0.00,21.00,VWS V14.01,2013-02-15 23:22:00,
2013-02-15 17:27:00,34.5,13.2,30.37,NW,307,3.0,5.0,41,0.00,,---,0.00,14.00,VWS V14.01,2013-02-15 23:27:00,
2013-02-15 17:32:00,34.3,13.1,30.37,WNW,288,3.0,6.0,41,0.00,,---,0.00,11.00,VWS V14.01,2013-02-15 23:32:00,
2013-02-15 17:37:00,34.0,13.9,30.37,NW,323,7.0,7.0,43,0.00,,---,0.00,7.00,VWS V14.01,2013-02-15 23:37:00,
2013-02-15 17:42:00,33.7,15.1,30.37,NW,315,4.0,6.0,46,0.00,,---,0.00,0.00,VWS V14.01,2013-02-15 23:42:00,
2013-02-15 17:47:00,33.3,15.7,30.38,WNW,284,3.0,6.0,48,0.00,,---,0.00,0.00,VWS V14.01,2013-02-15 23:47:00,
2013-02-15 17:52:00,33.0,15.9,30.38,NW,322,0.0,6.0,49,0.00,,---,0.00,0.00,VWS V14.01,2013-02-15 23:52:00,
2013-02-15 17:57:00,32.7,16.6,30.38,NW,321,0.0,5.0,51,0.00,,---,0.00,0.00,VWS V14.01,2013-02-15 23:57:00,
2013-02-15 18:02:00,32.3,16.7,30.39,West,281,5.0,6.0,52,0.00,,---,0.00,0.00,VWS V14.01,2013-02-16 00:02:00,
2013-02-15 18:07:00,32.0,16.4,30.39,WNW,302,1.0,10.0,52,0.00,,---,0.00,0.00,VWS V14.01,2013-02-16 00:07:00,
2013-02-15 18:12:00,31.8,16.6,30.39,WNW,302,6.0,6.0,53,0.00,,---,0.00,0.00,VWS V14.01,2013-02-16 00:12:00,
2013-02-15 18:17:00,31.7,16.5,30.39,NW,321,2.0,5.0,53,0.00,,---,0.00,0.00,VWS V14.01,2013-02-16 00:17:00,
2013-02-15 18:22:00,31.5,16.8,30.39,WNW,291,1.0,3.0,54,0.00,,---,0.00,0.00,VWS V14.01,2013-02-16 00:22:00,
2013-02-15 18:27:00,31.4,17.1,30.39,WNW,296,3.0,7.0,55,0.00,,---,0.00,0.00,VWS V14.01,2013-02-16 00:27:00,
2013-02-15 18:32:00,31.3,17.4,30.39,North,350,0.0,8.0,56,0.00,,---,0.00,0.00,VWS V14.01,2013-02-16 00:32:00,
2013-02-15 18:37:00,31.1,17.2,30.39,WNW,292,4.0,7.0,56,0.00,,---,0.00,0.00,VWS V14.01,2013-02-16 00:37:00,
2013-02-15 18:42:00,30.9,17.1,30.39,NNW,330,1.0,5.0,56,0.00,,---,0.00,0.00,VWS V14.01,2013-02-16 00:42:00,
2013-02-15 18:47:00,30.7,16.9,30.39,NW,313,0.0,6.0,56,0.00,,---,0.00,0.00,VWS V14.01,2013-02-16 00:47:00,
2013-02-15 18:52:00,30.6,16.8,30.39,NNW,331,0.0,3.0,56,0.00,,---,0.00,0.00,VWS V14.01,2013-02-16 00:52:00,
2013-02-15 18:57:00,30.5,16.7,30.40,NW,323,0.0,2.0,56,0.00,,---,0.00,0.00,VWS V14.01,2013-02-16 00:57:00,
2013-02-15 19:02:00,30.4,17.0,30.40,North,355,4.0,9.0,57,0.00,,---,0.00,0.00,VWS V14.01,2013-02-16 01:02:00,
2013-02-15 19:07:00,30.0,16.6,30.40,NNW,336,4.0,10.0,57,0.00,,---,0.00,0.00,VWS V14.01,2013-02-16 01:07:00,
2013-02-15 19:12:00,29.7,16.8,30.40,NNW,340,5.0,9.0,58,0.00,,---,0.00,0.00,VWS V14.01,2013-02-16 01:12:00,
2013-02-15 19:17:00,29.5,17.0,30.41,NNW,338,5.0,7.0,59,0.00,,---,0.00,0.00,VWS V14.01,2013-02-16 01:17:00,
2013-02-15 19:22:00,29.3,16.8,30.41,North,355,2.0,6.0,59,0.00,,---,0.00,0.00,VWS V14.01,2013-02-16 01:22:00,
2013-02-15 19:27:00,29.2,17.1,30.41,NNW,337,0.0,4.0,60,0.00,,---,0.00,0.00,VWS V14.01,2013-02-16 01:27:00,
2013-02-15 19:32:00,29.1,17.0,30.41,NNW,346,0.0,8.0,60,0.00,,---,0.00,0.00,VWS V14.01,2013-02-16 01:32:00,
2013-02-15 19:37:00,28.9,16.8,30.41,WNW,299,4.0,6.0,60,0.00,,---,0.00,0.00,VWS V14.01,2013-02-16 01:37:00,
2013-02-15 19:42:00,28.9,16.4,30.41,NW,311,0.0,10.0,59,0.00,,---,0.00,0.00,VWS V14.01,2013-02-16 01:42:00,
2013-02-15 19:47:00,28.8,16.3,30.41,NNW,332,0.0,5.0,59,0.00,,---,0.00,0.00,VWS V14.01,2013-02-16 01:47:00,
2013-02-15 19:52:00,28.7,16.2,30.41,NNW,347,2.0,9.0,59,0.00,,---,0.00,0.00,VWS V14.01,2013-02-16 01:52:00,
2013-02-15 19:57:00,28.6,16.5,30.41,NW,314,2.0,10.0,60,0.00,,---,0.00,0.00,VWS V14.01,2013-02-16 01:57:00,
2013-02-15 20:02:00,28.5,16.4,30.41,NNW,342,6.0,12.0,60,0.00,,---,0.00,0.00,VWS V14.01,2013-02-16 02:02:00,
2013-02-15 20:07:00,28.4,16.7,30.41,NW,326,1.0,6.0,61,0.00,,---,0.00,0.00,VWS V14.01,2013-02-16 02:07:00,
2013-02-15 20:12:00,28.3,17.0,30.41,NNW,346,4.0,7.0,62,0.00,,---,0.00,0.00,VWS V14.01,2013-02-16 02:12:00,
2013-02-15 20:17:00,28.2,17.2,30.41,NNW,330,0.0,2.0,63,0.00,,---,0.00,0.00,VWS V14.01,2013-02-16 02:17:00,
2013-02-15 20:22:00,28.1,16.8,30.41,NW,317,5.0,5.0,62,0.00,,---,0.00,0.00,VWS V14.01,2013-02-16 02:22:00,
2013-02-15 20:27:00,28.0,15.9,30.41,North,350,0.0,5.0,60,0.00,,---,0.00,0.00,VWS V14.01,2013-02-16 02:27:00,
2013-02-15 20:32:00,27.9,15.1,30.41,NNW,329,3.0,6.0,58,0.00,,---,0.00,0.00,VWS V14.01,2013-02-16 02:32:00,
2013-02-15 20:37:00,27.8,15.0,30.41,NNW,334,0.0,5.0,58,0.00,,---,0.00,0.00,VWS V14.01,2013-02-16 02:37:00,
2013-02-15 20:42:00,27.7,15.3,30.42,NW,319,0.0,11.0,59,0.00,,---,0.00,0.00,VWS V14.01,2013-02-16 02:42:00,
2013-02-15 20:47:00,27.6,15.6,30.42,NW,308,1.0,3.0,60,0.00,,---,0.00,0.00,VWS V14.01,2013-02-16 02:47:00,
2013-02-15 20:52:00,27.5,15.8,30.42,NNW,334,0.0,5.0,61,0.00,,---,0.00,0.00,VWS V14.01,2013-02-16 02:52:00,
2013-02-15 20:57:00,27.4,15.7,30.42,NNW,329,0.0,5.0,61,0.00,,---,0.00,0.00,VWS V14.01,2013-02-16 02:57:00,
2013-02-15 21:02:00,27.3,15.6,30.42,NNW,329,3.0,7.0,61,0.00,,---,0.00,0.00,VWS V14.01,2013-02-16 03:02:00,
2013-02-15 21:07:00,27.3,15.6,30.42,North,10,4.0,6.0,61,0.00,,---,0.00,0.00,VWS V14.01,2013-02-16 03:07:00,
2013-02-15 21:12:00,27.2,15.6,30.42,NNW,335,5.0,5.0,61,0.00,,---,0.00,0.00,VWS V14.01,2013-02-16 03:12:00,
2013-02-15 21:17:00,27.2,15.6,30.42,NW,325,0.0,1.0,61,0.00,,---,0.00,0.00,VWS V14.01,2013-02-16 03:17:00,
2013-02-15 21:22:00,27.2,15.6,30.42,WNW,300,1.0,6.0,61,0.00,,---,0.00,0.00,VWS V14.01,2013-02-16 03:22:00,
2013-02-15 21:27:00,27.1,15.1,30.42,NW,315,1.0,2.0,60,0.00,,---,0.00,0.00,VWS V14.01,2013-02-16 03:27:00,
2013-02-15 21:32:00,27.1,15.1,30.41,NW,306,2.0,3.0,60,0.00,,---,0.00,0.00,VWS V14.01,2013-02-16 03:32:00,
2013-02-15 21:37:00,27.0,15.0,30.41,NW,305,4.0,5.0,60,0.00,,---,0.00,0.00,VWS V14.01,2013-02-16 03:37:00,
2013-02-15 21:42:00,27.0,15.0,30.41,NW,316,0.0,3.0,60,0.00,,---,0.00,0.00,VWS V14.01,2013-02-16 03:42:00,
2013-02-15 21:47:00,26.9,14.9,30.41,WNW,294,2.0,7.0,60,0.00,,---,0.00,0.00,VWS V14.01,2013-02-16 03:47:00,
2013-02-15 21:52:00,26.8,15.2,30.41,West,280,2.0,4.0,61,0.00,,---,0.00,0.00,VWS V14.01,2013-02-16 03:52:00,
2013-02-15 21:57:00,26.7,15.1,30.41,NW,309,0.0,1.0,61,0.00,,---,0.00,0.00,VWS V14.01,2013-02-16 03:57:00,
2013-02-15 22:02:00,26.6,15.0,30.41,North,350,0.0,0.0,61,0.00,,---,0.00,0.00,VWS V14.01,2013-02-16 04:02:00,
2013-02-15 22:07:00,26.5,14.9,30.41,NW,309,2.0,5.0,61,0.00,,---,0.00,0.00,VWS V14.01,2013-02-16 04:07:00,
2013-02-15 22:12:00,26.4,14.8,30.41,NW,309,0.0,0.0,61,0.00,,---,0.00,0.00,VWS V14.01,2013-02-16 04:12:00,
2013-02-15 22:17:00,26.3,15.1,30.41,NW,312,0.0,0.0,62,0.00,,---,0.00,0.00,VWS V14.01,2013-02-16 04:17:00,
2013-02-15 22:22:00,26.2,15.0,30.41,NW,306,1.0,1.0,62,0.00,,---,0.00,0.00,VWS V14.01,2013-02-16 04:22:00,
2013-02-15 22:27:00,26.0,14.8,30.40,NW,311,0.0,2.0,62,0.00,,---,0.00,0.00,VWS V14.01,2013-02-16 04:27:00,
2013-02-15 22:32:00,25.9,15.1,30.40,NW,311,0.0,0.0,63,0.00,,---,0.00,0.00,VWS V14.01,2013-02-16 04:32:00,
2013-02-15 22:37:00,25.8,15.0,30.40,NNW,333,1.0,5.0,63,0.00,,---,0.00,0.00,VWS V14.01,2013-02-16 04:37:00,
2013-02-15 22:41:00,25.7,14.9,30.40,NNW,336,2.0,2.0,63,0.00,,---,0.00,0.00,VWS V14.01,2013-02-16 04:41:00,
2013-02-15 22:46:00,25.6,15.1,30.40,NW,326,0.0,2.0,64,0.00,,---,0.00,0.00,VWS V14.01,2013-02-16 04:46:00,
2013-02-15 22:51:00,25.5,15.0,30.40,NW,326,0.0,0.0,64,0.00,,---,0.00,0.00,VWS V14.01,2013-02-16 04:51:00,
2013-02-15 22:56:00,25.4,14.9,30.40,NW,325,0.0,0.0,64,0.00,,---,0.00,0.00,VWS V14.01,2013-02-16 04:56:00,
2013-02-15 23:00:00,25.3,15.2,30.40,NW,325,0.0,0.0,65,0.00,,---,0.00,0.00,VWS V14.01,2013-02-16 05:00:00,
2013-02-15 23:05:00,25.2,15.1,30.39,NW,325,0.0,0.0,65,0.00,,---,0.00,0.00,VWS V14.01,2013-02-16 05:05:00,
2013-02-15 23:10:00,25.1,15.0,30.39,NW,325,0.0,2.0,65,0.00,,---,0.00,0.00,VWS V14.01,2013-02-16 05:10:00,
2013-02-15 23:15:00,25.0,15.3,30.39,WNW,302,0.0,5.0,66,0.00,,---,0.00,0.00,VWS V14.01,2013-02-16 05:15:00,
2013-02-15 23:20:00,24.9,15.2,30.39,NNW,336,0.0,4.0,66,0.00,,---,0.00,0.00,VWS V14.01,2013-02-16 05:20:00,
2013-02-15 23:23:00,24.9,15.2,30.39,North,355,1.0,1.0,66,0.00,,---,0.00,0.00,VWS V14.01,2013-02-16 05:23:00,
2013-02-15 23:28:00,24.8,15.4,30.39,North,355,0.0,1.0,67,0.00,,---,0.00,0.00,VWS V14.01,2013-02-16 05:28:00,
2013-02-15 23:33:00,24.7,15.3,30.39,NW,321,0.0,2.0,67,0.00,,---,0.00,0.00,VWS V14.01,2013-02-16 05:33:00,
2013-02-15 23:38:00,24.6,15.2,30.39,NW,321,0.0,3.0,67,0.00,,---,0.00,0.00,VWS V14.01,2013-02-16 05:38:00,
2013-02-15 23:43:00,24.5,15.5,30.39,NW,321,0.0,3.0,68,0.00,,---,0.00,0.00,VWS V14.01,2013-02-16 05:43:00,
2013-02-15 23:48:00,24.4,15.4,30.39,NW,323,1.0,1.0,68,0.00,,---,0.00,0.00,VWS V14.01,2013-02-16 05:48:00,
2013-02-15 23:53:00,24.3,15.3,30.39,NNW,331,0.0,1.0,68,0.00,,---,0.00,0.00,VWS V14.01,2013-02-16 05:53:00,
2013-02-15 23:58:00,24.3,15.6,30.39,NNW,331,0.0,3.0,69,0.00,,---,0.00,0.00,VWS V14.01,2013-02-16 05:58:00,